Location: Eastchurch
(51.4000°N, 0.8667°E)
Time: 10:19:46
(UTC+00:00)

Cosmos 2219 Rocket - Pass Details

Date: 19 January 2026
Orbit: 828 x 844 km, 71.0° (Epoch: 18 February)

Event Time Altitude Azimuth Distance (km) Brightness Sun altitude
Rises 18:35:17 0° 325° (NW) 3,399 5.7 -19.9°
Reaches altitude 10° 18:39:20 10° 353° (N) 2,459 4.6 -20.6°
Enters shadow 18:41:46 13° 19° (NNE) 2,258 4.2 -21.0°
